TimePDT,TemperatureF,Dew PointF,Humidity,Sea Level PressureIn,VisibilityMPH,Wind Direction,Wind SpeedMPH,Gust SpeedMPH,PrecipitationIn,Events,Conditions,WindDirDegrees,DateUTC
12:51 AM,63.0,35.1,35,29.93,10.0,Calm,Calm,-,N/A,,Clear,0,2013-10-15 07:51:00
1:51 AM,61.0,34.0,36,29.93,10.0,Calm,Calm,-,N/A,,Clear,0,2013-10-15 08:51:00
2:51 AM,69.1,25.0,19,29.91,10.0,North,9.2,-,N/A,,Clear,360,2013-10-15 09:51:00
3:51 AM,69.1,24.1,18,29.89,10.0,North,13.8,21.9,N/A,,Clear,360,2013-10-15 10:51:00
4:51 AM,68.0,24.1,19,29.89,10.0,North,10.4,-,N/A,,Clear,360,2013-10-15 11:51:00
5:51 AM,64.9,25.0,22,29.90,10.0,Calm,Calm,-,N/A,,Clear,0,2013-10-15 12:51:00
6:51 AM,64.0,26.1,24,29.92,10.0,Calm,Calm,-,N/A,,Clear,0,2013-10-15 13:51:00
7:51 AM,63.0,30.0,29,29.93,10.0,Calm,Calm,-,N/A,,Clear,0,2013-10-15 14:51:00
8:51 AM,70.0,28.9,22,29.94,10.0,North,8.1,-,N/A,,Clear,350,2013-10-15 15:51:00
9:51 AM,77.0,26.1,15,29.94,10.0,North,9.2,-,N/A,,Clear,10,2013-10-15 16:51:00
10:51 AM,81.0,25.0,13,29.93,10.0,North,8.1,-,N/A,,Clear,360,2013-10-15 17:51:00
11:51 AM,82.9,21.9,11,29.92,10.0,Calm,Calm,-,N/A,,Clear,0,2013-10-15 18:51:00
12:51 PM,84.9,21.9,10,29.90,10.0,NNE,5.8,-,N/A,,Clear,20,2013-10-15 19:51:00
1:51 PM,86.0,21.0,9,29.88,10.0,SE,4.6,-,N/A,,Clear,130,2013-10-15 20:51:00
2:51 PM,84.9,25.0,11,29.86,10.0,South,11.5,-,N/A,,Clear,180,2013-10-15 21:51:00
3:51 PM,84.9,24.1,11,29.85,10.0,SSE,12.7,-,N/A,,Clear,160,2013-10-15 22:51:00
4:51 PM,84.0,25.0,12,29.85,10.0,South,11.5,-,N/A,,Clear,180,2013-10-15 23:51:00
5:51 PM,82.9,23.0,11,29.86,10.0,NNE,9.2,-,N/A,,Clear,20,2013-10-16 00:51:00
6:51 PM,78.1,27.0,15,29.88,10.0,ENE,6.9,-,N/A,,Clear,70,2013-10-16 01:51:00
7:51 PM,75.0,28.9,18,29.91,10.0,WSW,3.5,-,N/A,,Clear,240,2013-10-16 02:51:00
8:51 PM,72.0,30.9,22,29.93,10.0,Calm,Calm,-,N/A,,Clear,0,2013-10-16 03:51:00
9:51 PM,69.1,30.0,23,29.95,10.0,Calm,Calm,-,N/A,,Clear,0,2013-10-16 04:51:00
10:51 PM,64.9,35.1,33,29.96,10.0,Calm,Calm,-,N/A,,Clear,0,2013-10-16 05:51:00
11:51 PM,63.0,33.1,33,29.96,10.0,Calm,Calm,-,N/A,,Clear,0,2013-10-16 06:51:00